Home   Weather   Stäfa   Past weeks

Flag for Switzerland Past Weather in Stäfa, Zurich, Switzerland — Yesterday and Last 2 Weeks

Now
54 °F

Cool.


Feels Like: 50 °F
Forecast: 36 / 43 °F
Wind: 10 mph from Southwest

Location: Zuerich-Fluntern

Current Time: Apr 25, 2017 at 7:10:10 am

Latest Report: Apr 25, 2017 at 6:00 am


Visibility: N/A

Pressure: 29.76 "Hg

Humidity: 69%

Dew Point: 44 °F

Location of StäfaLocation

Past Weather in Stäfa — Graph

°F

Stäfa Temperature Yesterday

Maximum temperature yesterday: 66 °F (at 5:00 pm)
Minimum temperature yesterday: 34 °F (at 7:00 am)
Average temperature yesterday: 50 °F

High & Low Weather Summary for the Past Weeks

 TemperatureHumidityPressure
High72 °F (Apr 10, 3:00 pm)96% (Apr 19, 2:00 pm)30.57 "Hg (Apr 19, 2:00 pm)
Low28 °F (Apr 20, 6:00 am)26% (Apr 10, 6:00 pm)29.78 "Hg (Apr 25, 5:00 am)
Average48 °F62%30.19 "Hg
* Reported Apr 10 5:00 am — Apr 25 5:00 am, Stäfa, Weather by CustomWeather, © 2017

Note: Actual official high and low records may vary slightly from our data, if they occured in-between our weather recording intervals... More about our weather records

Advertising

Stäfa Weather History for the Previous 24 Hours

Scroll right to see more
 ConditionsComfort  
Time TempWeatherWind HumidityBarometerVisibility
5:00 am
Tue, Apr 25
53 °FCool.13 mph74%29.78 "HgN/A
4:00 am52 °FCool.3 mph65%29.80 "HgN/A
3:00 am52 °FCool.2 mph62%29.80 "HgN/A
2:00 am53 °FCool.2 mph60%29.80 "HgN/A
1:00 am51 °FCool.1 mph65%29.83 "HgN/A
12:00 am52 °FCool.1 mph63%29.83 "HgN/A
11:00 pm
Mon, Apr 24
53 °FCool.2 mph64%29.84 "HgN/A
10:00 pm54 °FCool.2 mph62%29.84 "HgN/A
9:00 pm57 °FRefreshingly cool.1 mph57%29.84 "HgN/A
8:00 pm63 °FScattered clouds.3 mph40%29.81 "HgN/A
7:00 pm64 °FMild.6 mph38%29.83 "HgN/A
6:00 pm66 °FMild.6 mph31%29.83 "HgN/A
5:00 pm66 °FMild.13 mph30%29.85 "HgN/A
4:00 pm65 °FMild.6 mph34%29.88 "HgN/A
3:00 pm63 °FMild.5 mph37%29.93 "HgN/A
2:00 pm61 °FPassing clouds.2 mph43%29.96 "HgN/A
1:00 pm56 °FRefreshingly cool.3 mph46%30.01 "HgN/A
12:00 pm52 °FCool.5 mph52%30.04 "HgN/A
11:00 am49 °FCool.1 mph54%30.07 "HgN/A
10:00 am44 °FQuite cool.2 mph60%30.10 "HgN/A
9:00 am41 °FQuite cool.2 mph63%30.12 "HgN/A
8:00 am38 °FSunny.3 mph68%30.14 "HgN/A
7:00 am34 °FChilly.1 mph76%30.15 "HgN/A
Weather by CustomWeather, © 2017

See weather overviewHow to use our weather pages